Location: ?p Thanh B�nh
(16.5833°N, 107.5333°E)
Time: 05:23:46
(UTC+00:00)

CZ-2C R/B - Pass Details

Date: 29 October 2020
Orbit: 703 x 909 km, 98.1° (Epoch: 29 November)

Event Time Altitude Azimuth Distance (km) Brightness Sun altitude
Rises 12:22:30 0° 183° (S) 3,511 6.5 -29.6°
Reaches altitude 10° 12:25:01 10° 190° (S) 2,580 5.9 -30.2°
Maximum altitude 12:30:27 42° 260° (W) 1,272 4.4 -31.5°
Drops below altitude 10° 12:35:53 10° 330° (NNW) 2,567 5.9 -32.8°
Sets 12:38:24 0° 337° (NNW) 3,491 6.6 -33.4°
